This is the latest recevied weather packets stored in our database for station/object W8KVG. If no packets are shown the sender has not sent any weather packets the latest 1 day(s).
| Time | Temp. | Humidity | Pressure | Rain* | Wind** | Luminosity | Snow |
|---|---|---|---|---|---|---|---|
| 1777974525 | 17.22° C | 71% | 1006.3 hPa | 0 mm | 0.89 m/s, 206° | 0 W/m² | - |
| 1777974233 | 16.67° C | 71% | 1006.3 hPa | 0 mm | 1.79 m/s, 199° | 0 W/m² | - |
| 1777973918 | 16.67° C | 71% | 1006 hPa | 0 mm | 0.45 m/s, 327° | 0 W/m² | - |
| 1777973616 | 16.67° C | 71% | 1006.2 hPa | 0 mm | 0.89 m/s, 359° | 0 W/m² | - |
| 1777973313 | 16.67° C | 72% | 1006.2 hPa | 0 mm | 0.45 m/s, 273° | 0 W/m² | - |
| 1777973011 | 16.67° C | 73% | 1006.2 hPa | 0 mm | 0.89 m/s, 229° | 0 W/m² | - |
| 1777972708 | 16.67° C | 73% | 1006.1 hPa | 0 mm | 1.79 m/s, 28° | 0 W/m² | - |
| 1777972406 | 16.67° C | 73% | 1005.9 hPa | 0 mm | 0.89 m/s, 335° | 0 W/m² | - |
| 1777972103 | 16.67° C | 73% | 1006 hPa | 0 mm | 0 m/s | 0 W/m² | - |
| 1777971802 | 16.11° C | 74% | 1006.2 hPa | 0 mm | 0 m/s | 0 W/m² | - |
| 1777971498 | 16.67° C | 74% | 1006.2 hPa | 0 mm | 0.89 m/s, 20° | 0 W/m² | - |
| 1777971197 | 16.11° C | 74% | 1006.3 hPa | 0 mm | 0.89 m/s, 326° | 0 W/m² | - |
| 1777970894 | 16.11° C | 74% | 1006 hPa | 0 mm | 2.24 m/s, 190° | 0 W/m² | - |
| 1777970592 | 16.11° C | 75% | 1006.2 hPa | 0 mm | 0 m/s | 0 W/m² | - |
| 1777970289 | 16.11° C | 76% | 1006.2 hPa | 0 mm | 1.34 m/s, 205° | 0 W/m² | - |
| 1777969986 | 16.11° C | 76% | 1006.3 hPa | 0 mm | 0.89 m/s, 194° | 0 W/m² | - |
| 1777969683 | 16.11° C | 75% | 1006.1 hPa | 0 mm | 0.89 m/s, 339° | 0 W/m² | - |
| 1777969379 | 16.11° C | 75% | 1006.2 hPa | 0 mm | 1.34 m/s, 182° | 0 W/m² | - |
| 1777969075 | 16.11° C | 76% | 1006.1 hPa | 0 mm | 0.89 m/s, 333° | 0 W/m² | - |
| 1777968772 | 16.11° C | 75% | 1005.9 hPa | 0 mm | 0.89 m/s, 221° | 0 W/m² | - |
| 1777968469 | 16.11° C | 75% | 1006.2 hPa | 0 mm | 0 m/s | 0 W/m² | - |
| 1777968165 | 16.11° C | 75% | 1005.9 hPa | 0 mm | 3.13 m/s, 190° | 0 W/m² | - |
| 1777967860 | 16.11° C | 75% | 1005.9 hPa | 0 mm | 0.45 m/s, 207° | 0 W/m² | - |
| 1777967558 | 16.11° C | 74% | 1005.8 hPa | 0 mm | 1.34 m/s, 8° | 0 W/m² | - |
| 1777967255 | 16.67° C | 73% | 1005.8 hPa | 0 mm | 1.34 m/s, 359° | 0 W/m² | - |
* Rain latest hour (hover to see other rain measurements)
** Current wind speed in m/s (hover to see current wind gust speed)